MOLNIYA 2-10

Last updated on Jan. 25, 2020, 4:43 a.m. UTC

1 07376U 74056A   20024.35178113 -.00000991  00000-0  00000-0 0  9992
2 07376  63.5153 183.3949 6780160 293.2504  11.4264  2.01120338332767
UTC
Height (km)
Latitude
Longitude
Inclination
Orbital Period
UTC large
Height (km)
Speed (km/s)
/
Latitude / Longitude
Inclination (degrees)
Orbital Period (minutes)
Azimuth
Elevation
Range (km)
Doppler Factor
iOS Compass Heading
iOS Angle

Next 30 passes for location: Hong Kong

Rise time Rise Azimuth (degrees) Set time Set Azimuth (degrees) Duration Max altitude (degrees)

No matching passes for this satellites